Вернуться в каталог

STARLINK-32101

АктивенСвязьVLEO
NORAD 60447·PAYLOAD·🇺🇸 United States

Запущен Aug 12, 2024 с Cape Canaveral Space Force Station

Loading…

Ближайшие Пролёты (ближайшие 24 часа)

TLE

СвежийSource: CelesTrak SupGP

Эпоха: Sep 15, 2026, 03:26 UTC

1 60447C 24144Y   26258.14354167 -.00016153  00000+0 -47733-3 0  2582
2 60447  53.1591  52.5878 0001129  87.5348 123.9332 15.34392417    13

Отслеживайте STARLINK-32101 в реальном времени с AllMySat

Download on the App Store